Location: Caltech
(34.1382°N, 118.1253°W)
Time: 04:02:52
(UTC-07:00)

Oscar 19 - Visible Passes

Search period start: 29 June 2016 00:00
Search period end: 09 July 2016 00:00
Orbit: 773 x 791 km, 98.5° (Epoch: 29 June)

Date Brightness Start Highest point End Pass type
(mag) Time Alt. Az. Time Alt. Az. Time Alt. Az.
29 Jun 11.1 02:08:24 10° NNE 02:12:45 56° ENE 02:12:45 56° ENE visible
29 Jun 12.6 03:49:50 10° NW 03:52:12 13° WNW 03:53:19 13° WNW visible
30 Jun 12.2 01:37:09 10° NE 01:40:33 27° ENE 01:40:33 27° ENE visible
30 Jun 11.8 03:16:31 10° NNW 03:20:46 27° WNW 03:21:07 27° WNW visible
01 Jul 13.0 01:07:02 10° ENE 01:08:21 13° ENE 01:08:21 13° ENE visible
01 Jul 10.9 02:44:10 10° N 02:48:54 55° WNW 02:48:54 55° WNW visible
02 Jul 11.0 02:12:19 10° NNE 02:16:42 60° NE 02:16:42 60° NE visible
02 Jul 12.7 03:54:11 10° NW 03:56:07 12° WNW 03:57:16 11° WNW visible
03 Jul 12.1 01:41:00 10° NE 01:44:30 29° ENE 01:44:30 29° ENE visible
03 Jul 11.9 03:20:36 10° NNW 03:24:42 25° WNW 03:25:03 25° WNW visible
04 Jul 13.0 01:10:39 10° ENE 01:12:18 14° ENE 01:12:18 14° ENE visible
04 Jul 11.0 02:48:10 10° N 02:52:51 50° WNW 02:52:51 50° WNW visible
05 Jul 10.9 02:16:16 10° NNE 02:20:39 63° NE 02:20:39 63° NE visible
05 Jul 12.8 03:58:41 10° NW 04:00:02 11° WNW 04:01:12 10° WNW visible
06 Jul 12.0 01:44:52 10° NNE 01:48:26 32° ENE 01:48:26 32° ENE visible
06 Jul 12.1 03:24:41 10° NNW 03:28:38 23° WNW 03:29:00 23° WNW visible
07 Jul 12.9 01:14:19 10° NE 01:16:14 15° ENE 01:16:14 15° ENE visible
07 Jul 11.2 02:52:11 10° N 02:56:47 46° WNW 02:56:47 46° WNW visible
08 Jul 10.9 02:20:13 10° NNE 02:24:34 64° NNE 02:24:34 64° NNE visible
